Location: Lane
(33.5226°N, 79.8788°W)
Time: 22:31:34
(UTC+00:00)

Vanguard 2 Rocket - Pass Details

Date: 05 October 2022
Orbit: 555 x 3321 km, 32.9° (Epoch: 28 November)

Event Time Altitude Azimuth Distance (km) Brightness Sun altitude
Rises 01:38:36 0° 226° (SW) 7,299 11.8 -33.5°
Reaches altitude 10° 01:43:54 10° 221° (SW) 6,219 11.3 -34.6°
Enters shadow 02:00:48 50° 164° (SSE) 3,223 9.2 -37.9°
